C/2023 V3 ( PanSTARRS )

Japanese version
Home page
Updated on May 13, 2024

---------------------------------------------------------------------

* Profile

Discovery Date November 3, 2023
Magnitude 20.5 mag
Discoverer Pan-STARRS 1 telescope (Haleakala)

* Orbital Elements

Epoch 2023 Sept. 13.0 TT = JDT 2460200.5
T 2023 Aug. 6.19302 TT                                  Rudenko
q   4.4716852            (2000.0)            P               Q
n   0.02047019     Peri.  291.51626     +0.70015026     -0.30417985
a  13.2349250      Node    91.50085     +0.59257112     +0.75225480
e   0.6621299      Incl.   40.25433     -0.39830778     +0.58445474
P  48.1
>From 52 observations 2023 Sept. 25-2024 Jan. 2, mean residual 0".3.

* Magnitudes Graph

        m1 = 10.5 + 5 log d + 10.0 log r

---------------------------------------------------------------------

The orbital elements are published on M.P.E.C. 2024-A43.
The magnitudes graphs are made with Comet for Windows.

---------------------------------------------------------------------

Copyright(C) Seiichi Yoshida (comet@aerith.net). All rights reserved.